DW8052 Weather Reports


time (UTC)temp
C
wind
direction
speed
KPH
gust
KPH
rain 1hr
cm
rain 24hr
cm
rain mn
cm
humidity
%
barometer
mb
20260503235715 17 337 9.7 14.5 0.00 0.00 0.00 80 1017.8
20260503235215 18 321 11.3 16.1 0.00 0.00 0.00 80 1017.9
20260503234715 18 324 14.5 16.1 0.00 0.00 0.00 80 1017.8
20260503234214 18 298 12.9 20.9 0.00 0.00 0.00 81 1017.7
20260503233715 18 324 17.7 25.7 0.00 0.00 0.00 80 1018.0
20260503232215 18 298 19.3 24.1 0.00 0.00 0.00 81 1018.1
20260503231715 18 290 19.3 24.1 0.00 0.00 0.00 81 1017.9
20260503230715 18 301 14.5 19.3 0.00 0.00 0.00 82 1017.7
20260503230215 18 301 11.3 19.3 0.00 0.00 0.00 82 1017.5
20260503225715 18 300 11.3 16.1 0.00 0.00 0.00 82 1017.6
20260503225214 18 312 12.9 14.5 0.00 0.00 0.00 82 1017.3
20260503224715 18 327 11.3 14.5 0.00 0.00 0.00 82 1017.4
20260503224215 18 325 9.7 14.5 0.00 0.00 0.00 82 1017.2
20260503223715 18 332 9.7 12.9 0.00 0.00 0.00 83 1017.1
20260503223214 18 335 8.0 11.3 0.00 0.00 0.00 83 1016.9
20260503222715 18 328 6.4 9.7 0.00 0.00 0.00 84 1017.1
20260503222215 18 315 9.7 11.3 0.00 0.00 0.00 84 1016.9
20260503221714 18 320 6.4 9.7 0.00 0.00 0.00 84 1016.8
20260503220714 17 301 9.7 14.5 0.00 0.00 0.00 83 1016.8
20260503220215 17 312 8.0 16.1 0.00 0.00 0.00 84 1016.9
20260503215214 17 303 14.5 20.9 0.00 0.00 0.00 83 1017.0
20260503214714 18 299 12.9 19.3 0.00 0.00 0.00 83 1016.9
20260503214214 18 313 8.0 12.9 0.00 0.00 0.00 84 1016.7
20260503213715 18 320 9.7 12.9 0.00 0.00 0.00 83 1016.7
20260503213215 18 323 11.3 14.5 0.00 0.00 0.00 84 1016.7
20260503212715 18 325 11.3 12.9 0.00 0.00 0.00 84 1016.6
20260503212214 17 328 8.0 11.3 0.00 0.00 0.00 83 1016.7
20260503211714 17 323 9.7 12.9 0.00 0.00 0.00 83 1016.5
20260503211214 17 330 9.7 12.9 0.00 0.00 0.00 83 1016.5
20260503210214 17 327 8.0 11.3 0.00 0.00 0.00 83 1016.4
20260503205214 17 315 8.0 9.7 0.00 0.00 0.00 83 1016.3
20260503204715 17 321 9.7 11.3 0.00 0.00 0.00 83 1016.4
20260503204214 17 325 9.7 11.3 0.00 0.00 0.00 83 1016.4
20260503203715 17 322 8.0 11.3 0.00 0.00 0.00 83 1016.4
20260503203214 17 319 6.4 11.3 0.00 0.00 0.00 82 1016.1
20260503202714 17 329 8.0 11.3 0.00 0.00 0.00 82 1016.1
20260503202214 17 323 11.3 12.9 0.00 0.00 0.00 82 1016.0
20260503201214 18 326 8.0 11.3 0.00 0.00 0.00 82 1016.0
20260503200715 18 326 8.0 9.7 0.00 0.00 0.00 82 1015.9
20260503195714 18 329 8.0 9.7 0.00 0.00 0.00 82 1015.9
20260503194714 18 351 8.0 8.0 0.00 0.00 0.00 82 1015.8
20260503194214 18 349 4.8 9.7 0.00 0.00 0.00 82 1015.7
20260503193714 18 350 4.8 9.7 0.00 0.00 0.00 82 1015.7
20260503193215 18 346 8.0 9.7 0.00 0.00 0.00 82 1015.7
20260503192715 18 343 8.0 12.9 0.00 0.00 0.00 82 1015.7
20260503192214 18 354 8.0 12.9 0.00 0.00 0.00 81 1015.6
20260503191714 18 0 9.7 14.5 0.00 0.00 0.00 81 1015.7
20260503191215 18 0 8.0 9.7 0.00 0.00 0.00 81 1015.5
20260503190715 18 356 8.0 11.3 0.00 0.00 0.00 81 1015.5
20260503190214 18 350 9.7 12.9 0.00 0.00 0.00 80 1015.6
20260503185715 18 351 8.0 12.9 0.00 0.00 0.00 80 1015.7
20260503185214 18 358 9.7 14.5 0.00 0.00 0.00 80 1015.5
20260503184714 18 3 9.7 12.9 0.00 0.00 0.00 80 1015.7
20260503184215 18 358 9.7 12.9 0.00 0.00 0.00 80 1015.9
20260503183715 18 0 8.0 12.9 0.00 0.00 0.00 80 1015.7
20260503183215 18 358 9.7 12.9 0.00 0.00 0.00 80 1015.7
20260503182714 18 0 9.7 12.9 0.00 0.00 0.00 80 1015.9
20260503181714 18 5 11.3 14.5 0.00 0.00 0.00 80 1015.5
20260503181215 18 11 9.7 14.5 0.00 0.00 0.00 80 1015.8
20260503180715 18 2 8.0 11.3 0.00 0.00 0.00 80 1015.8
20260503180215 18 2 9.7 14.5 0.00 0.00 0.00 80 1015.7
20260503175715 18 3 11.3 14.5 0.00 0.00 0.00 80 1015.7
20260503175214 18 4 11.3 14.5 0.00 0.00 0.00 80 1015.7
20260503174714 18 9 11.3 14.5 0.00 0.00 0.00 79 1015.7
20260503174214 18 8 9.7 16.1 0.00 0.00 0.00 79 1015.8
20260503173214 18 9 12.9 16.1 0.00 0.00 0.00 80 1015.7
20260503172714 18 7 11.3 14.5 0.00 0.00 0.00 80 1015.8
20260503172214 18 7 9.7 11.3 0.00 0.00 0.00 80 1015.9
20260503171215 18 0 6.4 8.0 0.00 0.00 0.00 80 1016.2
20260503170715 18 0 6.4 8.0 0.00 0.00 0.00 80 1016.2
20260503170214 18 1 4.8 9.7 0.00 0.00 0.00 80 1016.1
20260503160214 19 2 11.3 16.1 0.00 0.00 0.00 76 1016.6
20260503150713 19 0 9.7 12.9 0.00 0.00 0.00 80 1017.0
20260503140214 19 330 9.7 11.3 0.00 0.00 0.00 79 1017.7
20260503131214 20 5 11.3 20.9 0.00 0.00 0.00 80 1017.9
20260503130713 20 356 12.9 19.3 0.00 0.00 0.00 80 1018.0
20260503130213 20 356 11.3 16.1 0.00 0.00 0.00 80 1018.0
20260503120214 20 4 11.3 22.5 0.00 0.00 0.00 81 1018.7
20260503110714 21 10 20.9 29.0 0.00 0.00 0.00 78 1018.5
20260503110213 21 11 19.3 37.0 0.00 0.00 0.00 78 1018.6
20260503090213 21 16 24.1 40.2 0.00 0.00 0.00 77 1018.1
20260503081213 21 23 25.7 35.4 0.00 0.00 0.00 74 1018.1
20260503080713 21 18 20.9 27.4 0.00 0.00 0.00 74 1018.2
20260503080213 21 26 27.4 35.4 0.00 0.00 0.00 73 1018.3
20260503072213 21 21 16.1 29.0 0.00 0.00 0.00 72 1018.1
20260503071713 21 24 22.5 33.8 0.00 0.00 0.00 72 1018.0
20260503071213 21 27 25.7 38.6 0.00 0.00 0.00 72 1018.2
20260503070713 21 25 24.1 35.4 0.00 0.00 0.00 71 1018.0
20260503070213 21 25 20.9 35.4 0.00 0.00 0.00 71 1018.1
20260503060212 21 33 38.6 41.8 0.00 0.00 0.00 70 1018.2
20260503054713 21 37 38.6 45.1 0.00 0.00 0.00 71 1018.2
20260503054213 21 35 38.6 41.8 0.00 0.00 0.00 71 1018.3
20260503053713 21 33 40.2 45.1 0.00 0.00 0.00 70 1018.3
20260503053213 21 36 38.6 46.7 0.00 0.00 0.00 71 1018.3
20260503052713 21 36 38.6 45.1 0.00 0.00 0.00 70 1018.4
20260503052213 21 37 40.2 45.1 0.00 0.00 0.00 70 1018.4
20260503051713 22 40 35.4 41.8 0.00 0.00 0.00 69 1018.5
20260503051213 21 32 35.4 41.8 0.00 0.00 0.00 69 1018.4
20260503050713 21 39 38.6 41.8 0.00 0.00 0.00 69 1018.5
20260503045713 21 39 37.0 41.8 0.00 0.00 0.00 69 1018.5
20260503044712 21 34 35.4 40.2 0.00 0.00 0.00 69 1018.7
20260503044213 21 38 35.4 41.8 0.00 0.00 0.00 68 1018.6
20260503043712 21 36 33.8 40.2 0.00 0.00 0.00 68 1018.6
20260503043213 21 39 30.6 38.6 0.00 0.00 0.00 67 1018.7
20260503042713 21 40 33.8 40.2 0.00 0.00 0.00 67 1018.8
20260503042213 21 39 33.8 38.6 0.00 0.00 0.00 66 1018.8
20260503041713 21 40 35.4 38.6 0.00 0.00 0.00 66 1018.9
20260503041213 21 38 32.2 37.0 0.00 0.00 0.00 66 1018.8
20260503040712 21 39 32.2 37.0 0.00 0.00 0.00 66 1019.1
20260503040212 21 44 30.6 37.0 0.00 0.00 0.00 66 1019.1
20260503035713 21 40 33.8 38.6 0.00 0.00 0.00 66 1019.1
20260503035213 21 45 32.2 37.0 0.00 0.00 0.00 66 1019.1
20260503034713 21 42 33.8 40.2 0.00 0.00 0.00 65 1018.9
20260503034213 22 41 32.2 38.6 0.00 0.00 0.00 65 1019.1
20260503033712 22 33 29.0 33.8 0.00 0.00 0.00 62 1019.0
20260503033213 22 46 22.5 32.2 0.00 0.00 0.00 62 1019.1
20260503032712 22 21 24.1 32.2 0.00 0.00 0.00 61 1019.2
20260503032212 22 38 24.1 32.2 0.00 0.00 0.00 61 1019.3
20260503031713 22 31 25.7 33.8 0.00 0.00 0.00 63 1019.4
20260503030212 22 37 25.7 38.6 0.00 0.00 0.00 63 1019.7
20260503025712 22 19 27.4 37.0 0.00 0.00 0.00 63 1019.7
20260503025213 22 39 30.6 37.0 0.00 0.00 0.00 63 1019.9
20260503024713 22 32 29.0 40.2 0.00 0.00 0.00 62 1019.9
20260503024212 22 22 30.6 38.6 0.00 0.00 0.00 59 1019.8
20260503023713 22 33 29.0 41.8 0.00 0.00 0.00 58 1019.9
20260503022712 22 34 19.3 33.8 0.00 0.00 0.00 55 1020.1
20260503022212 22 38 27.4 33.8 0.00 0.00 0.00 56 1020.1
20260503021713 22 33 25.7 35.4 0.00 0.00 0.00 55 1020.3
20260503021212 22 36 27.4 38.6 0.00 0.00 0.00 56 1020.4
20260503020713 22 28 32.2 38.6 0.00 0.00 0.00 56 1020.4
20260503020212 22 36 25.7 37.0 0.00 0.00 0.00 56 1020.7
20260503015713 22 27 27.4 35.4 0.00 0.00 0.00 56 1020.8
20260503015212 22 24 27.4 35.4 0.00 0.00 0.00 56 1020.9
20260503014712 22 22 22.5 35.4 0.00 0.00 0.00 55 1020.9
20260503014213 22 22 29.0 35.4 0.00 0.00 0.00 54 1021.1
20260503013712 22 28 25.7 37.0 0.00 0.00 0.00 55 1021.0
20260503013212 22 28 27.4 38.6 0.00 0.00 0.00 56 1021.1
20260503012713 22 22 20.9 33.8 0.00 0.00 0.00 55 1021.3
20260503011213 22 24 20.9 35.4 0.00 0.00 0.00 59 1021.5
20260503010213 22 17 22.5 37.0 0.00 0.00 0.00 60 1021.9
20260503005712 21 24 27.4 38.6 0.00 0.00 0.00 60 1021.8
20260503005212 21 29 24.1 35.4 0.00 0.00 0.00 60 1022.0
20260503004713 21 30 29.0 38.6 0.00 0.00 0.00 60 1021.8
20260503004212 21 29 27.4 41.8 0.00 0.00 0.00 60 1021.9
20260503003712 21 19 22.5 37.0 0.00 0.00 0.00 61 1022.0
20260503003213 22 13 19.3 32.2 0.00 0.00 0.00 60 1022.1
20260503002712 22 18 29.0 40.2 0.00 0.00 0.00 60 1022.0
20260503002212 22 23 25.7 38.6 0.00 0.00 0.00 61 1022.3
20260503001713 21 26 20.9 37.0 0.00 0.00 0.00 61 1022.3
20260503000713 21 2 20.9 32.2 0.00 0.00 0.00 63 1022.1